Regional Weather Roundup
Issued by NWS

Home | Current Version | Previous Version | Text Only | Print | Product List | Glossary On
Versions: 1 2 3 4 5 6 7 8 9 10 11 12 13 14 15 16 17 18 19 20 21 22 23 24 25 26 27 28 29 30 31 32 33 34 35 36 37 38 39 40 41 42 43 44 45 46 47 48 49 50
000
ASUS43 KDTX 092310
RWRMI
MICHIGAN HOURLY REGIONAL WEATHER ROUNDUP
NATIONAL WEATHER SERVICE DETROIT/PONTIAC MI
600 PM EST FRI DEC 09 2016

NOTE: "FAIR" INDICATES FEW OR NO CLOUDS BELOW 12,000 FEET WITH NO
SIGNIFICANT WEATHER AND/OR OBSTRUCTION TO VISIBILITY.

MIZ047>049-052>055-059>063-066>070-074>076-081>083-100000-
SOUTHEAST LOWER MICHIGAN

CITY           SKY/WX    TMP DP  RH WIND       PRES   REMARKS
ADRIAN         CLOUDY    26  21  81 NW14      30.43R WCI  14
ALMA           CLOUDY    26  15  62 W13       30.39S WCI  15
ANN ARBOR      CLOUDY    26  19  74 W8        30.40R WCI  18
BAD AXE        CLOUDY    25  21  84 SW5       30.35S WCI  20
CARO           CLOUDY    26  17  68 SW6       30.35S WCI  20
DETROIT CITY   CLOUDY    29  15  56 W12       30.39R WCI  19
DETROIT        CLOUDY    28  21  75 W9        30.41S WCI  19
FLINT          CLOUDY    27  15  61 W15       30.38R WCI  15
GROSSE ILE     CLOUDY    28  22  76 NW12      30.40R WCI  18
HILLSDALE      CLOUDY    23  19  86 W9        30.40R WCI  13
HOWELL         CLOUDY    26  18  73 W12G17    30.38S WCI  15

CITY           SKY/WX    TMP DP  RH WIND       PRES   REMARKS
JACKSON        CLOUDY    25  18  74 W7        30.41R WCI  17
LAMBERTVILLE   CLOUDY    29  22  74 W10       30.43R WCI  20
LANSING        CLOUDY    25  17  72 W13       30.41S WCI  14
LAPEER         NOT AVBL
MASON          CLOUDY    25  20  82 W9        30.40S WCI  15
MONROE         FLURRIES  28  23  81 W13       30.41R WCI  18
MT. CLEMENS    FLURRIES  29  14  53 W13       30.36R WCI  19
PONTIAC        FLURRIES  27  16  63 W16       30.36R WCI  15
PORT HOPE        N/A     27  20  75 SW6       30.32S WCI  20
PORT HURON     CLOUDY    27  21  80 CALM      30.37S
TRI CITIES     CLOUDY    28  16  60 W15       30.38R WCI  16
MIDLAND        CLOUDY    29  13  50 W9        30.37R WCI  20
TROY           CLOUDY    30  13  50 W8        30.40R WCI  22
SAGINAW HB     CLOUDY    30  14  51 W10       30.37R WCI  21
$$
MIZ043>046-050>051-056>058-064>065-071>073-077>080-100000-
SOUTHWEST LOWER MICHIGAN

CITY           SKY/WX    TMP DP  RH WIND       PRES   REMARKS
BATTLE CREEK   FLURRIES  24  20  84 W7        30.43R WCI  16
BENTON HARBOR  CLOUDY    27  15  61 W12       30.46S WCI  17
BIG RAPIDS     CLOUDY    24  17  77 W8        30.37S WCI  15
COLDWATER      FLURRIES  25  20  79 W8        30.43S WCI  16
FREMONT        FLURRIES  24  15  70 NW7       30.41S WCI  16
HOLLAND        FLURRIES  26  16  65 W6        30.43S WCI  19
GRAND RAPIDS   LGT SNOW  24  18  77 W9        30.43R WCI  14
IONIA          CLOUDY    24  18  75 W10       30.40R WCI  14
KALAMAZOO      FLURRIES  25  18  74 W7        30.44R WCI  17
LUDINGTON      CLOUDY    26  13  60 NW10      30.40S WCI  15
MARSHALL       CLOUDY    25  20  82 W8        30.42R WCI  16
MOUNT PLEASANT PTCLDY    26  16  68 W9        30.37R WCI  16
MUSKEGON       FLURRIES  27  14  58 W9        30.43S WCI  18
SOUTH HAVEN    CLOUDY    28  14  57 W9G16     30.45S WCI  19
$$
MIZ016>042-100000-
NORTHERN LOWER MICHIGAN

CITY           SKY/WX    TMP DP  RH WIND       PRES   REMARKS
ALPENA         CLOUDY    22  14  71 CALM      30.34S
BEAVER ISLAND  LGT SNOW  25  19  78 NW6       30.34S WCI  18
BELLAIRE       LGT SNOW  24  23  96 CALM      30.36S VSB 3/4
CADILLAC       LGT SNOW  22  18  83 W8        30.32S WCI  13
CHARLEVOIX     LGT SNOW  26  21  84 N9        30.37R WCI  16
FRANKFORT      CLOUDY    27  17  66 W10       30.38S WCI  17
GAYLORD        CLOUDY    21  15  78 CALM      30.30R
GRAYLING       FLURRIES  23  20  89 CALM      30.32R
HARBOR SPRINGS LGT SNOW  23  21  91 CALM      30.33S
HOUGHTON LAKE  LGT SNOW  24  20  84 W14       30.32R FOG     WCI  12
MANISTEE       FLURRIES  25  17  72 W10       30.39S WCI  15
OSCODA         CLOUDY    27  17  64 CALM      30.33S
PELLSTON       LGT SNOW  22  18  85 CALM      30.34R FOG
ROGERS CITY    LGT SNOW  25  16  70 W6        30.35R WCI  18
TRAVERSE CITY  LGT SNOW  25  22  88 W8        30.36S FOG     WCI  16
$$
MIZ007>008-015-100000-
EASTERN UPPER MICHIGAN

CITY           SKY/WX    TMP DP  RH WIND       PRES   REMARKS
KINROSS        LGT SNOW  16  11  80 CALM      30.34R
MACKINAC ISLAN CLOUDY    21  16  81 N3        30.33S
NEWBERRY       MOCLDY    15  15  97 CALM      30.33S
S. S. MARIE    LGT SNOW  19  14  81 S3        30.34R
MUNISING         N/A     22  13  68 W6        30.36R WCI  14
$$
MIZ004>006-011>014-085-100000-
CENTRAL UPPER MICHIGAN

CITY           SKY/WX    TMP DP  RH WIND       PRES   REMARKS
MANISTIQUE     CLOUDY    20  15  82 NW8       30.36S WCI  10
ESCANABA       CLOUDY    23   9  55 W9        30.39S WCI  13
MENOMINEE      CLOUDY    23   8  52 NW6       30.42S WCI  16
SAWYER-GWINN   CLOUDY    16   9  73 CALM      30.35R
$$
MIZ001>003-009>011-084-100000-
WESTERN UPPER MICHIGAN

CITY           SKY/WX    TMP DP  RH WIND       PRES   REMARKS
IRON MOUNTAIN  CLOUDY    19   6  57 W14       30.36R WCI   6
HOUGHTON       FLURRIES  18   9  68 CALM      30.34F
COPPER HARBOR    N/A     22  15  75 N18G24    30.37S WCI   7
IRONWOOD       FLURRIES  13   4  67 W13       30.41S WCI  -2
$$

ABBREVIATIONS USED IN REMARKS
   TC - TEMPERATURE IN CELSIUS
  WCI - WIND CHILL INDEX
   HX - HEAT INDEX
  VSB - VISIBILITY





USA.gov is the U.S. government's official web portal to all federal, state and local government web resources and services.